This is the latest recevied weather packets stored in our database for station/object N1ICS-1. If no packets are shown the sender has not sent any weather packets the latest 10 day(s).
| Time | Temp. | Humidity | Pressure | Rain* | Wind** | Luminosity | Snow |
|---|---|---|---|---|---|---|---|
| 1777839003 | 15.56° C | 45% | 1015.1 hPa | 0 mm | - | 328 W/m² | - |
| 1777838702 | 15.56° C | 47% | 1015.2 hPa | 0 mm | - | 344 W/m² | - |
| 1777838402 | 16.11° C | 46% | 1015.1 hPa | 0 mm | - | 370 W/m² | - |
| 1777838102 | 16.11° C | 43% | 1015.1 hPa | 0 mm | - | 447 W/m² | - |
| 1777837802 | 15.56° C | 45% | 1015.1 hPa | 0 mm | - | 443 W/m² | - |
| 1777837502 | 16.11° C | 44% | 1015.2 hPa | 0 mm | - | 423 W/m² | - |
| 1777837202 | 15.56° C | 45% | 1015.3 hPa | 0 mm | - | 392 W/m² | - |
| 1777836902 | 16.11° C | 43% | 1015.4 hPa | 0 mm | - | 423 W/m² | - |
| 1777836602 | 16.11° C | 43% | 1015.3 hPa | 0 mm | - | 483 W/m² | - |
| 1777836301 | 16.67° C | 42% | 1015.4 hPa | 0 mm | - | 529 W/m² | - |
| 1777836002 | 16.67° C | 43% | 1015.3 hPa | 0 mm | - | 569 W/m² | - |
| 1777835702 | 16.11° C | 42% | 1015.3 hPa | 0 mm | - | 557 W/m² | - |
| 1777835402 | 16.67° C | 43% | 1015.5 hPa | 0 mm | - | 531 W/m² | - |
| 1777835101 | 16.67° C | 41% | 1015.4 hPa | 0 mm | - | 601 W/m² | - |
| 1777834802 | 16.11° C | 43% | 1015.6 hPa | 0 mm | - | 598 W/m² | - |
| 1777834502 | 16.11° C | 43% | 1015.6 hPa | 0 mm | - | 683 W/m² | - |
| 1777834201 | 16.67° C | 41% | 1015.9 hPa | 0 mm | - | 765 W/m² | - |
| 1777833902 | 16.67° C | 45% | 1015.8 hPa | 0 mm | - | 755 W/m² | - |
| 1777833602 | 16.11° C | 43% | 1016 hPa | 0 mm | - | 769 W/m² | - |
| 1777833301 | 16.67° C | 41% | 1016.2 hPa | 0 mm | - | 699 W/m² | - |
| 1777833002 | 16.11° C | 42% | 1015.9 hPa | 0 mm | - | 758 W/m² | - |
| 1777832702 | 16.11° C | 41% | 1016.2 hPa | 0 mm | - | 727 W/m² | - |
| 1777832402 | 16.67° C | 43% | 1016.2 hPa | 0 mm | - | 849 W/m² | - |
| 1777832102 | 16.11° C | 41% | 1016.3 hPa | 0 mm | - | 783 W/m² | - |
| 1777831802 | 16.11° C | 40% | 1016.2 hPa | 0 mm | - | 825 W/m² | - |
* Rain latest hour (hover to see other rain measurements)
** Current wind speed in m/s (hover to see current wind gust speed)